Voltar ao catálogo

TUBSAT

AtivoCiênciaSSO
NORAD 25757·PAYLOAD·🇩🇪 Germany

Lançado May 26, 1999 de Satish Dhawan Space Centre

Loading…

Próximas Passagens (próximas 24 horas)

TLE

AtualizadoSource: Space-Track

Época: Sep 14, 2026, 05:31 UTC

1 25757U 99029B   26257.23030119  .00000036  00000-0  20679-4 0  9993
2 25757  98.6767 255.6956 0015357  80.3912 279.9017 14.52444739446173

Acompanhe TUBSAT em tempo real com AllMySat

Download on the App Store